When you browse on this site, cookies collect data to enhance your experience and personalize the content and advertising you see.
Visit our Privacy Policy to learn more. By continuing to use the site, you agree to this use of cookies and data.
  • In Czech Republic
  • List of Countries
  • For 7 days
  • Water Temperature
  • Satellite Maps
  • Weather Map
  • Weather Widgets
  • user-avatar
    Login

    Hourly Weather Canberra

    Today, 18 June, Tuesday

    Time Temperature Precipitation Wind Pressure Humidity
    00:00 +8°C° 0 mm 0 mps 712 mmHg 89%
    01:00 +7°C° 0 mm 0 mps 711 mmHg 90%
    02:00 +7°C° 0 mm 0 mps 711 mmHg 91%
    03:00 +6°C° 0 mm 0 mps 711 mmHg 92%
    04:00 +6°C° 0 mm 0 mps 711 mmHg 93%
    05:00 +6°C° 0 mm 0 mps 711 mmHg 93%
    06:00 +6°C° 0 mm 0 mps 711 mmHg 93%
    07:00 +6°C° 0 mm 0 mps 711 mmHg 93%
    08:00 +8°C° 0 mm 1 mps 711 mmHg 88%
    09:00 +9°C° 0 mm 1 mps 711 mmHg 83%
    10:00 +11°C° 0 mm 1 mps 711 mmHg 77%
    11:00 +12°C° 0 mm 2 mps 711 mmHg 70%
    12:00 +12°C° 0 mm 3 mps 710 mmHg 63%
    13:00 +13°C° 0 mm 4 mps 710 mmHg 56%
    14:00 +12°C° 0 mm 4 mps 710 mmHg 57%
    15:00 +11°C° 0 mm 3 mps 709 mmHg 58%
    16:00 +10°C° 0 mm 3 mps 709 mmHg 59%
    17:00 +9°C° 0 mm 3 mps 709 mmHg 69%
    18:00 +7°C° 0 mm 2 mps 710 mmHg 78%
    19:00 +5°C° 0 mm 2 mps 710 mmHg 88%
    20:00 +6°C° 0 mm 1 mps 710 mmHg 90%
    21:00 +5°C° 0 mm 1 mps 710 mmHg 92%
    22:00 +5°C° 0 mm 1 mps 710 mmHg 95%
    23:00 +5°C° 0 mm 1 mps 710 mmHg 95%

    Tomorrow, 19 June, Wednesday

    Time Temperature Precipitation Wind Pressure Humidity
    00:00 +5°C° 0 mm 1 mps 710 mmHg 95%
    01:00 +4°C° 0 mm 1 mps 710 mmHg 95%
    02:00 +4°C° 0 mm 1 mps 710 mmHg 95%
    03:00 +3°C° 0 mm 1 mps 710 mmHg 95%
    04:00 +3°C° 0 mm 1 mps 710 mmHg 95%
    05:00 +2°C° 0 mm 1 mps 711 mmHg 95%
    06:00 +2°C° 0 mm 1 mps 711 mmHg 94%
    07:00 +2°C° 0 mm 1 mps 712 mmHg 94%
    08:00 +4°C° 0 mm 1 mps 712 mmHg 84%
    09:00 +6°C° 0 mm 1 mps 713 mmHg 73%
    10:00 +8°C° 0 mm 1 mps 713 mmHg 63%
    11:00 +9°C° 0 mm 1 mps 713 mmHg 56%
    12:00 +10°C° 0 mm 1 mps 713 mmHg 48%
    13:00 +12°C° 0 mm 1 mps 713 mmHg 41%
    14:00 +11°C° 0 mm 1 mps 713 mmHg 45%
    15:00 +10°C° 0 mm 1 mps 712 mmHg 48%
    16:00 +10°C° 0 mm 1 mps 712 mmHg 52%
    17:00 +8°C° 0 mm 1 mps 713 mmHg 60%
    18:00 +6°C° 0 mm 1 mps 713 mmHg 68%
    19:00 +3°C° 0 mm 1 mps 713 mmHg 75%
    20:00 +3°C° 0 mm 1 mps 713 mmHg 77%
    21:00 +2°C° 0 mm 1 mps 713 mmHg 79%
    22:00 +2°C° 0 mm 1 mps 714 mmHg 81%
    23:00 +1°C° 0 mm 1 mps 714 mmHg 83%

    Day after tomorrow, 20 June, Thursday

    Time Temperature Precipitation Wind Pressure Humidity
    00:00 +1°C° 0 mm 1 mps 714 mmHg 84%
    01:00 +1°C° 0 mm 1 mps 713 mmHg 86%
    02:00 +1°C° 0 mm 1 mps 713 mmHg 87%
    03:00 0°C° 0 mm 1 mps 713 mmHg 88%
    04:00 0°C° 0 mm 1 mps 713 mmHg 88%
    05:00 0°C° 0 mm 1 mps 713 mmHg 89%
    06:00 0°C° 0 mm 1 mps 713 mmHg 89%
    07:00 0°C° 0 mm 1 mps 714 mmHg 89%
    08:00 +2°C° 0 mm 1 mps 714 mmHg 80%
    09:00 +4°C° 0 mm 0 mps 714 mmHg 70%
    10:00 +6°C° 0 mm 0 mps 714 mmHg 61%
    11:00 +8°C° 0 mm 1 mps 713 mmHg 61%
    12:00 +8°C° 0 mm 1 mps 713 mmHg 60%
    13:00 +9°C° 0 mm 1 mps 712 mmHg 60%
    14:00 +8°C° 0 mm 1 mps 712 mmHg 62%
    15:00 +8°C° 0 mm 1 mps 712 mmHg 64%
    16:00 +8°C° 0 mm 1 mps 712 mmHg 66%
    17:00 +6°C° 0 mm 1 mps 712 mmHg 74%
    18:00 +4°C° 0 mm 1 mps 712 mmHg 81%
    19:00 +1°C° 0 mm 0 mps 712 mmHg 89%
    20:00 +1°C° 0 mm 0 mps 712 mmHg 89%
    21:00 +1°C° 0 mm 0 mps 712 mmHg 89%
    22:00 +1°C° 0 mm 0 mps 712 mmHg 90%
    23:00 0°C° 0 mm 0 mps 712 mmHg 91%

    21 June, Friday

    Time Temperature Precipitation Wind Pressure Humidity
    00:00 +1°C° 0 mm 1 mps 712 mmHg 92%
    01:00 0°C° 0 mm 1 mps 712 mmHg 93%
    02:00 0°C° 0 mm 1 mps 712 mmHg 93%
    03:00 0°C° 0 mm 1 mps 712 mmHg 93%
    04:00 0°C° 0 mm 1 mps 712 mmHg 93%
    05:00 0°C° 0 mm 1 mps 712 mmHg 93%
    06:00 0°C° 0 mm 1 mps 712 mmHg 93%
    07:00 -1°C° 0 mm 1 mps 713 mmHg 93%
    08:00 +1°C° 0 mm 2 mps 713 mmHg 82%
    09:00 +3°C° 0 mm 2 mps 713 mmHg 71%
    10:00 +4°C° 0 mm 3 mps 714 mmHg 60%
    11:00 +7°C° 0 mm 3 mps 714 mmHg 54%
    12:00 +8°C° 0 mm 3 mps 714 mmHg 48%
    13:00 +9°C° 0 mm 3 mps 713 mmHg 42%
    14:00 +9°C° 0 mm 2 mps 713 mmHg 46%
    15:00 +8°C° 0 mm 2 mps 713 mmHg 50%
    16:00 +7°C° 0 mm 2 mps 713 mmHg 53%
    17:00 +5°C° 0 mm 2 mps 714 mmHg 62%
    18:00 +3°C° 0 mm 2 mps 714 mmHg 71%
    19:00 +1°C° 0 mm 2 mps 715 mmHg 79%
    20:00 +1°C° 0 mm 2 mps 715 mmHg 82%
    21:00 -1°C° 0 mm 2 mps 715 mmHg 85%
    22:00 -1°C° 0 mm 2 mps 715 mmHg 89%
    23:00 -1°C° 0 mm 2 mps 716 mmHg 90%

    22 June, Saturday

    Time Temperature Precipitation Wind Pressure Humidity
    00:00 -2°C° 0 mm 2 mps 716 mmHg 91%
    01:00 -2°C° 0 mm 2 mps 716 mmHg 93%
    02:00 -2°C° 0 mm 2 mps 715 mmHg 92%
    03:00 -2°C° 0 mm 2 mps 715 mmHg 92%
    04:00 -1°C° 0 mm 2 mps 715 mmHg 92%
    05:00 -1°C° 0 mm 2 mps 716 mmHg 92%
    06:00 -1°C° 0 mm 2 mps 716 mmHg 92%
    07:00 -1°C° 0 mm 2 mps 716 mmHg 93%
    08:00 +2°C° 0 mm 2 mps 717 mmHg 83%
    09:00 +4°C° 0 mm 2 mps 717 mmHg 73%
    10:00 +7°C° 0 mm 2 mps 717 mmHg 63%
    11:00 +8°C° 0 mm 2 mps 717 mmHg 59%
    12:00 +9°C° 0 mm 3 mps 717 mmHg 56%
    13:00 +10°C° 0 mm 3 mps 716 mmHg 53%
    14:00 +10°C° 0 mm 2 mps 716 mmHg 57%
    15:00 +9°C° 0 mm 2 mps 716 mmHg 60%
    16:00 +8°C° 0 mm 2 mps 716 mmHg 64%
    17:00 +6°C° 0 mm 2 mps 716 mmHg 73%
    18:00 +4°C° 0 mm 2 mps 716 mmHg 82%
    19:00 +2°C° 0 mm 2 mps 717 mmHg 90%
    20:00 +2°C° 0 mm 2 mps 717 mmHg 92%
    21:00 +1°C° 0 mm 2 mps 717 mmHg 93%
    22:00 +1°C° 0 mm 2 mps 717 mmHg 94%
    23:00 -1°C° 0 mm 2 mps 717 mmHg 94%

    23 June, Sunday

    Time Temperature Precipitation Wind Pressure Humidity
    00:00 -1°C° 0 mm 2 mps 717 mmHg 94%
    01:00 -1°C° 0 mm 2 mps 716 mmHg 94%
    02:00 -1°C° 0 mm 2 mps 716 mmHg 94%
    03:00 -1°C° 0 mm 2 mps 716 mmHg 94%
    04:00 -1°C° 0 mm 2 mps 716 mmHg 93%
    05:00 -2°C° 0 mm 2 mps 716 mmHg 93%
    06:00 -2°C° 0 mm 2 mps 717 mmHg 92%
    07:00 -2°C° 0 mm 3 mps 717 mmHg 91%
    08:00 +1°C° 0 mm 3 mps 717 mmHg 82%
    09:00 +3°C° 0 mm 3 mps 717 mmHg 74%
    10:00 +7°C° 0 mm 3 mps 718 mmHg 65%
    11:00 +8°C° 0 mm 3 mps 717 mmHg 60%
    12:00 +9°C° 0 mm 3 mps 717 mmHg 55%
    13:00 +11°C° 0 mm 3 mps 717 mmHg 50%
    14:00 +10°C° 0 mm 3 mps 716 mmHg 53%
    15:00 +9°C° 0 mm 3 mps 716 mmHg 57%
    16:00 +9°C° 0 mm 3 mps 716 mmHg 60%
    17:00 +7°C° 0 mm 3 mps 716 mmHg 68%
    18:00 +4°C° 0 mm 3 mps 717 mmHg 76%
    19:00 +3°C° 0 mm 2 mps 717 mmHg 84%
    20:00 +2°C° 0 mm 2 mps 717 mmHg 87%
    21:00 +1°C° 0 mm 2 mps 717 mmHg 89%
    22:00 +1°C° 0 mm 2 mps 718 mmHg 91%
    23:00 +1°C° 0 mm 2 mps 718 mmHg 92%
    Show more